| time (UTC) | temp F | wind direction | speed knots | gust knots | rain 1hr in | rain 24hr in | rain mn in | humidity % | barometer mb |
| 20260507001010 | 54 | 269 | 5.2 | 10.4 | 0.15 | 0.70 | 0.70 | 100 | 1004.7 |
| 20260507000509 | 55 | 241 | 5.2 | 9.6 | 0.17 | 0.69 | 0.69 | 100 | 1004.6 |
| 20260507000009 | 55 | 269 | 3.5 | 8.7 | 0.20 | 0.68 | 0.68 | 100 | 1004.5 |
| 20260506235508 | 56 | 239 | 3.5 | 7.8 | 0.22 | 0.67 | 0.67 | 100 | 1004.3 |
| 20260506235009 | 57 | 256 | 3.5 | 8.7 | 0.23 | 0.65 | 0.65 | 100 | 1004.2 |
| 20260506234509 | 57 | 271 | 2.6 | 8.7 | 0.22 | 0.63 | 0.63 | 100 | 1004.2 |
| 20260506234007 | 58 | 231 | 2.6 | 7.0 | 0.19 | 0.59 | 0.59 | 100 | 1004.2 |
| 20260506233512 | 58 | 229 | 3.5 | 7.8 | 0.19 | 0.57 | 0.57 | 100 | 1004.0 |
| 20260506233011 | 58 | 244 | 2.6 | 5.2 | 0.20 | 0.57 | 0.57 | 100 | 1004.1 |
| 20260506232507 | 58 | 184 | 2.6 | 7.8 | 0.20 | 0.57 | 0.57 | 100 | 1004.0 |
| 20260506232006 | 58 | 276 | 3.5 | 7.8 | 0.19 | 0.56 | 0.56 | 100 | 1003.9 |
| 20260506231506 | 58 | 198 | 2.6 | 7.0 | 0.19 | 0.56 | 0.56 | 100 | 1003.9 |
| 20260506231010 | 58 | 199 | 1.7 | 7.0 | 0.16 | 0.54 | 0.54 | 100 | 1004.1 |
| 20260506230504 | 58 | 264 | 0.9 | 6.1 | 0.13 | 0.51 | 0.51 | 100 | 1004.1 |
| 20260506230014 | 58 | 259 | 0.9 | 6.1 | 0.09 | 0.51 | 0.47 | 100 | 1004.1 |
| 20260506225503 | 58 | 273 | 0.9 | 7.8 | 0.07 | 0.49 | 0.45 | 100 | 1004.1 |
| 20260506225003 | 58 | 221 | 0.9 | 7.8 | 0.04 | 0.46 | 0.42 | 100 | 1004.1 |
| 20260506224503 | 58 | 250 | 2.6 | 8.7 | 0.04 | 0.45 | 0.41 | 100 | 1004.1 |
| 20260506224002 | 58 | 217 | 2.6 | 9.6 | 0.03 | 0.44 | 0.40 | 100 | 1003.9 |
| 20260506223502 | 58 | 227 | 3.5 | 9.6 | 0.02 | 0.43 | 0.39 | 100 | 1004.1 |
| 20260506223002 | 58 | 207 | 2.6 | 10.4 | 0.02 | 0.42 | 0.38 | 100 | 1004.0 |
| 20260506222501 | 58 | 213 | 5.2 | 10.4 | 0.02 | 0.42 | 0.38 | 100 | 1004.1 |
| 20260506222100 | 58 | 250 | 4.3 | 7.8 | 0.02 | 0.42 | 0.38 | 100 | 1004.1 |
| 20260506221628 | 58 | 179 | 4.3 | 8.7 | 0.03 | 0.42 | 0.38 | 100 | 1004.1 |
| 20260506221059 | 58 | 202 | 3.5 | 7.8 | 0.03 | 0.42 | 0.38 | 100 | 1004.2 |
| 20260506220558 | 58 | 216 | 1.7 | 6.1 | 0.05 | 0.42 | 0.38 | 100 | 1004.4 |
| 20260506220129 | 58 | 194 | 2.6 | 7.8 | 0.06 | 0.42 | 0.38 | 100 | 1004.5 |
| 20260506215557 | 58 | 196 | 4.3 | 7.8 | 0.06 | 0.43 | 0.38 | 100 | 1004.5 |
| 20260506215056 | 58 | 212 | 3.5 | 7.8 | 0.06 | 0.43 | 0.38 | 100 | 1004.4 |
| 20260506214556 | 58 | 227 | 3.5 | 8.7 | 0.05 | 0.42 | 0.37 | 100 | 1004.4 |
| 20260506214055 | 58 | 234 | 3.5 | 8.7 | 0.06 | 0.42 | 0.37 | 100 | 1004.4 |
| 20260506213554 | 58 | 208 | 2.6 | 7.0 | 0.06 | 0.42 | 0.37 | 100 | 1004.5 |
| 20260506213106 | 58 | 192 | 1.7 | 4.3 | 0.05 | 0.41 | 0.36 | 100 | 1004.5 |
| 20260506212553 | 58 | 198 | 0.9 | 5.2 | 0.05 | 0.41 | 0.36 | 100 | 1004.5 |
| 20260506212052 | 58 | 192 | 1.7 | 6.1 | 0.05 | 0.41 | 0.36 | 100 | 1004.5 |
| 20260506211553 | 58 | 157 | 1.7 | 6.1 | 0.04 | 0.40 | 0.35 | 100 | 1004.5 |
| 20260506211050 | 58 | 180 | 0.0 | 5.2 | 0.05 | 0.40 | 0.35 | 100 | 1004.5 |
| 20260506210550 | 58 | 146 | 1.7 | 5.2 | 0.03 | 0.38 | 0.33 | 100 | 1004.6 |
| 20260506210056 | 58 | 159 | 0.9 | 3.5 | 0.02 | 0.37 | 0.32 | 100 | 1004.5 |
| 20260506205548 | 58 | 113 | 0.9 | 2.6 | 0.04 | 0.37 | 0.32 | 100 | 1004.5 |
| 20260506205049 | 58 | 133 | 0.0 | 3.5 | 0.07 | 0.37 | 0.32 | 100 | 1004.6 |
| 20260506204547 | 58 | 184 | 1.7 | 3.5 | 0.09 | 0.37 | 0.32 | 100 | 1004.8 |
| 20260506204045 | 58 | 182 | 1.7 | 6.1 | 0.10 | 0.36 | 0.31 | 100 | 1004.9 |
| 20260506203547 | 58 | 192 | 0.0 | 6.1 | 0.11 | 0.36 | 0.31 | 100 | 1004.9 |
| 20260506203044 | 58 | 215 | 1.7 | 6.1 | 0.11 | 0.36 | 0.31 | 100 | 1004.9 |
| 20260506202543 | 58 | 238 | 0.9 | 4.3 | 0.12 | 0.36 | 0.31 | 100 | 1004.9 |
| 20260506202042 | 58 | 220 | 0.0 | 3.5 | 0.13 | 0.36 | 0.31 | 100 | 1005.1 |
| 20260506201546 | 58 | 220 | 1.7 | 7.8 | 0.13 | 0.36 | 0.31 | 100 | 1005.1 |
| 20260506201041 | 58 | 186 | 2.6 | 9.6 | 0.12 | 0.35 | 0.30 | 100 | 1005.3 |
| 20260506200538 | 58 | 219 | 4.3 | 9.6 | 0.13 | 0.35 | 0.30 | 100 | 1005.3 |
| 20260506200037 | 58 | 188 | 3.5 | 7.0 | 0.14 | 0.35 | 0.30 | 100 | 1005.3 |
| 20260506195535 | 58 | 199 | 2.6 | 8.7 | 0.11 | 0.32 | 0.27 | 100 | 1005.4 |
| 20260506195034 | 58 | 202 | 2.6 | 5.2 | 0.08 | 0.28 | 0.24 | 100 | 1005.4 |
| 20260506194533 | 58 | 244 | 1.7 | 5.2 | 0.08 | 0.28 | 0.23 | 100 | 1005.3 |
| 20260506194033 | 58 | 165 | 1.7 | 6.1 | 0.06 | 0.26 | 0.21 | 100 | 1005.2 |
| 20260506193534 | 58 | 215 | 3.5 | 6.1 | 0.05 | 0.25 | 0.20 | 100 | 1005.3 |
| 20260506193034 | 58 | 232 | 2.6 | 5.2 | 0.05 | 0.24 | 0.19 | 100 | 1005.4 |
| 20260506192533 | 58 | 172 | 1.7 | 3.5 | 0.05 | 0.24 | 0.19 | 100 | 1005.3 |
| 20260506192032 | 58 | 207 | 1.7 | 5.2 | 0.04 | 0.23 | 0.18 | 100 | 1005.5 |
| 20260506191533 | 58 | 297 | 1.7 | 6.1 | 0.05 | 0.23 | 0.18 | 100 | 1005.6 |
| 20260506191033 | 59 | 190 | 3.5 | 8.7 | 0.05 | 0.23 | 0.18 | 100 | 1005.8 |
| 20260506190532 | 59 | 204 | 3.5 | 9.6 | 0.04 | 0.22 | 0.17 | 100 | 1005.7 |
| 20260506190032 | 59 | 194 | 2.6 | 7.0 | 0.04 | 0.21 | 0.16 | 100 | 1005.6 |
| 20260506185532 | 59 | 202 | 2.6 | 7.0 | 0.04 | 0.21 | 0.16 | 100 | 1005.7 |
| 20260506185030 | 59 | 212 | 2.6 | 7.0 | 0.05 | 0.21 | 0.16 | 100 | 1005.8 |
| 20260506184532 | 59 | 210 | 2.6 | 7.0 | 0.05 | 0.20 | 0.15 | 100 | 1005.9 |
| 20260506184029 | 59 | 219 | 3.5 | 7.0 | 0.06 | 0.20 | 0.15 | 100 | 1006.0 |
| 20260506183529 | 59 | 198 | 2.6 | 7.0 | 0.06 | 0.20 | 0.15 | 100 | 1006.0 |
| 20260506183028 | 59 | 202 | 3.5 | 7.8 | 0.06 | 0.19 | 0.14 | 100 | 1005.9 |
| 20260506182530 | 59 | 219 | 3.5 | 7.8 | 0.07 | 0.19 | 0.14 | 100 | 1006.0 |
| 20260506182030 | 59 | 209 | 2.6 | 6.1 | 0.08 | 0.19 | 0.14 | 100 | 1006.0 |
| 20260506181526 | 59 | 182 | 2.6 | 7.0 | 0.08 | 0.18 | 0.13 | 100 | 1006.3 |
| 20260506181027 | 59 | 199 | 2.6 | 7.0 | 0.09 | 0.18 | 0.13 | 100 | 1006.3 |
| 20260506180525 | 59 | 188 | 0.9 | 2.6 | 0.10 | 0.18 | 0.13 | 100 | 1006.4 |
| 20260506180031 | 59 | 188 | 0.9 | 2.6 | 0.10 | 0.17 | 0.12 | 100 | 1006.4 |
| 20260506175525 | 59 | 188 | 0.0 | 1.7 | 0.12 | 0.17 | 0.12 | 100 | 1006.4 |
| 20260506175024 | 58 | 188 | 0.0 | 0.0 | 0.11 | 0.16 | 0.11 | 100 | 1006.4 |
| 20260506174530 | 58 | 188 | 0.0 | 0.0 | 0.10 | 0.15 | 0.10 | 100 | 1006.5 |
| 20260506174024 | 58 | 188 | 0.0 | 1.7 | 0.09 | 0.14 | 0.09 | 100 | 1006.5 |
| 20260506173524 | 58 | 188 | 0.0 | 1.7 | 0.09 | 0.14 | 0.09 | 99 | 1006.6 |
| 20260506173026 | 58 | 188 | 0.9 | 1.7 | 0.08 | 0.13 | 0.08 | 99 | 1006.6 |
| 20260506172523 | 58 | 136 | 0.0 | 0.9 | 0.07 | 0.12 | 0.07 | 98 | 1006.5 |
| 20260506172025 | 58 | 136 | 0.0 | 0.0 | 0.06 | 0.11 | 0.06 | 98 | 1006.5 |
| 20260506171534 | 58 | 136 | 0.0 | 0.9 | 0.05 | 0.10 | 0.05 | 97 | 1006.5 |
| 20260506171022 | 58 | 136 | 0.0 | 0.9 | 0.04 | 0.09 | 0.04 | 97 | 1006.4 |
| 20260506170524 | 59 | 136 | 0.0 | 1.7 | 0.03 | 0.08 | 0.03 | 96 | 1006.5 |
| 20260506170020 | 59 | 136 | 0.0 | 1.7 | 0.02 | 0.07 | 0.02 | 93 | 1006.5 |
| 20260506165520 | 59 | 136 | 0.0 | 1.7 | 0.00 | 0.05 | 0.00 | 92 | 1006.6 |
| 20260506165020 | 60 | 171 | 0.0 | 2.6 | 0.00 | 0.05 | 0.00 | 91 | 1006.5 |
| 20260506164523 | 60 | 171 | 0.0 | 2.6 | 0.00 | 0.05 | 0.00 | 90 | 1006.6 |
| 20260506164019 | 60 | 132 | 0.9 | 2.6 | 0.00 | 0.05 | 0.00 | 90 | 1006.7 |
| 20260506163520 | 60 | 111 | 0.0 | 2.6 | 0.00 | 0.05 | 0.00 | 89 | 1006.6 |
| 20260506163018 | 60 | 111 | 0.0 | 1.7 | 0.00 | 0.05 | 0.00 | 90 | 1006.6 |
| 20260506162519 | 60 | 111 | 0.0 | 1.7 | 0.00 | 0.05 | 0.00 | 90 | 1006.7 |
| 20260506162017 | 60 | 69 | 0.0 | 3.5 | 0.00 | 0.05 | 0.00 | 90 | 1006.8 |
| 20260506161516 | 60 | 69 | 0.9 | 3.5 | 0.00 | 0.05 | 0.00 | 89 | 1006.8 |
| 20260506161016 | 60 | 72 | 0.9 | 2.6 | 0.00 | 0.05 | 0.00 | 90 | 1006.9 |
| 20260506160517 | 60 | 72 | 1.7 | 2.6 | 0.00 | 0.05 | 0.00 | 90 | 1007.1 |
| 20260506160016 | 60 | 72 | 0.0 | 1.7 | 0.00 | 0.05 | 0.00 | 90 | 1007.4 |
| 20260506155513 | 61 | 72 | 0.0 | 1.7 | 0.00 | 0.05 | 0.00 | 89 | 1007.7 |
| 20260506155012 | 60 | 72 | 0.0 | 2.6 | 0.00 | 0.05 | 0.00 | 88 | 1007.9 |
| 20260506154513 | 60 | 72 | 0.0 | 2.6 | 0.00 | 0.05 | 0.00 | 88 | 1008.0 |
| 20260506154012 | 60 | 72 | 0.0 | 3.5 | 0.00 | 0.05 | 0.00 | 87 | 1007.9 |
| 20260506153512 | 60 | 64 | 0.9 | 2.6 | 0.00 | 0.05 | 0.00 | 88 | 1007.9 |
| 20260506153011 | 60 | 64 | 0.9 | 4.3 | 0.00 | 0.05 | 0.00 | 87 | 1007.8 |
| 20260506152515 | 60 | 133 | 0.9 | 4.3 | 0.00 | 0.05 | 0.00 | 88 | 1008.2 |
| 20260506152012 | 60 | 123 | 0.0 | 1.7 | 0.00 | 0.05 | 0.00 | 88 | 1008.1 |
| 20260506151511 | 60 | 53 | 0.0 | 1.7 | 0.00 | 0.05 | 0.00 | 88 | 1008.0 |
| 20260506151010 | 60 | 53 | 0.0 | 2.6 | 0.00 | 0.05 | 0.00 | 87 | 1008.0 |
| 20260506150513 | 60 | 53 | 0.9 | 2.6 | 0.00 | 0.05 | 0.00 | 87 | 1007.9 |
| 20260506150009 | 60 | 53 | 0.9 | 2.6 | 0.00 | 0.05 | 0.00 | 87 | 1007.9 |
| 20260506145509 | 60 | 193 | 0.9 | 2.6 | 0.00 | 0.05 | 0.00 | 86 | 1007.8 |
| 20260506145008 | 60 | 193 | 0.9 | 2.6 | 0.00 | 0.05 | 0.00 | 87 | 1007.9 |
| 20260506144507 | 60 | 193 | 0.0 | 2.6 | 0.00 | 0.05 | 0.00 | 87 | 1008.0 |
| 20260506144009 | 60 | 193 | 0.0 | 2.6 | 0.00 | 0.05 | 0.00 | 87 | 1008.0 |
| 20260506143507 | 60 | 193 | 0.0 | 2.6 | 0.00 | 0.05 | 0.00 | 87 | 1007.9 |
| 20260506143007 | 60 | 193 | 0.0 | 2.6 | 0.00 | 0.05 | 0.00 | 87 | 1007.9 |
| 20260506142508 | 60 | 193 | 0.9 | 2.6 | 0.00 | 0.05 | 0.00 | 86 | 1007.9 |
| 20260506142010 | 60 | 193 | 0.0 | 3.5 | 0.00 | 0.05 | 0.00 | 87 | 1008.0 |
| 20260506141506 | 60 | 193 | 0.0 | 3.5 | 0.00 | 0.05 | 0.00 | 86 | 1007.9 |
| 20260506141006 | 60 | 132 | 0.0 | 4.3 | 0.00 | 0.05 | 0.00 | 87 | 1007.9 |
| 20260506140506 | 59 | 132 | 0.9 | 4.3 | 0.00 | 0.05 | 0.00 | 87 | 1007.9 |
| 20260506140013 | 59 | 209 | 0.0 | 2.6 | 0.00 | 0.05 | 0.00 | 87 | 1007.9 |
| 20260506135506 | 59 | 186 | 0.0 | 1.7 | 0.00 | 0.05 | 0.00 | 87 | 1007.9 |
| 20260506135004 | 59 | 186 | 0.0 | 4.3 | 0.00 | 0.05 | 0.00 | 87 | 1007.9 |
| 20260506134505 | 59 | 186 | 0.0 | 4.3 | 0.00 | 0.05 | 0.00 | 87 | 1008.1 |
| 20260506134005 | 59 | 215 | 0.9 | 3.5 | 0.00 | 0.05 | 0.00 | 87 | 1008.2 |
| 20260506133505 | 59 | 211 | 0.0 | 2.6 | 0.00 | 0.05 | 0.00 | 87 | 1008.2 |
| 20260506133004 | 59 | 288 | 0.9 | 2.6 | 0.00 | 0.05 | 0.00 | 88 | 1008.4 |
| 20260506132504 | 59 | 202 | 0.0 | 4.3 | 0.00 | 0.05 | 0.00 | 87 | 1008.3 |
| 20260506132005 | 59 | 229 | 0.0 | 4.3 | 0.00 | 0.05 | 0.00 | 88 | 1008.4 |
| 20260506131506 | 58 | 175 | 0.9 | 2.6 | 0.00 | 0.05 | 0.00 | 88 | 1008.3 |
| 20260506131003 | 58 | 213 | 0.0 | 2.6 | 0.00 | 0.05 | 0.00 | 88 | 1008.4 |
| 20260506130505 | 58 | 138 | 0.9 | 6.1 | 0.00 | 0.05 | 0.00 | 87 | 1008.2 |
| 20260506130003 | 58 | 167 | 1.7 | 6.1 | 0.00 | 0.05 | 0.00 | 88 | 1008.1 |
| 20260506125502 | 58 | 160 | 1.7 | 5.2 | 0.00 | 0.05 | 0.00 | 88 | 1008.2 |
| 20260506125002 | 58 | 190 | 0.9 | 3.5 | 0.00 | 0.05 | 0.00 | 88 | 1008.2 |
| 20260506124502 | 58 | 215 | 1.7 | 5.2 | 0.00 | 0.05 | 0.00 | 88 | 1008.2 |
| 20260506124001 | 58 | 219 | 1.7 | 5.2 | 0.00 | 0.05 | 0.00 | 87 | 1008.1 |
| 20260506123502 | 58 | 197 | 0.9 | 3.5 | 0.00 | 0.05 | 0.00 | 87 | 1008.2 |
| 20260506123001 | 58 | 236 | 0.9 | 2.6 | 0.00 | 0.05 | 0.00 | 88 | 1008.2 |
| 20260506122501 | 58 | 236 | 0.9 | 3.5 | 0.00 | 0.05 | 0.00 | 87 | 1008.3 |
| 20260506122001 | 58 | 236 | 0.9 | 6.1 | 0.00 | 0.05 | 0.00 | 87 | 1008.4 |
| 20260506121602 | 58 | 280 | 1.7 | 6.1 | 0.00 | 0.05 | 0.00 | 88 | 1008.4 |
| 20260506121100 | 58 | 199 | 0.9 | 3.5 | 0.00 | 0.05 | 0.00 | 87 | 1008.4 |
| 20260506120602 | 58 | 283 | 0.0 | 4.3 | 0.00 | 0.05 | 0.00 | 87 | 1008.4 |
| 20260506115559 | 58 | 124 | 2.6 | 4.3 | 0.00 | 0.05 | 0.00 | 87 | 1008.6 |
| 20260506115100 | 57 | 196 | 0.9 | 4.3 | 0.00 | 0.05 | 0.00 | 88 | 1008.6 |
| 20260506114559 | 57 | 189 | 1.7 | 4.3 | 0.00 | 0.05 | 0.00 | 88 | 1008.6 |
| 20260506114101 | 57 | 188 | 0.0 | 4.3 | 0.00 | 0.05 | 0.00 | 89 | 1008.4 |
| 20260506113559 | 57 | 203 | 0.9 | 3.5 | 0.00 | 0.05 | 0.00 | 87 | 1008.5 |
| 20260506113059 | 57 | 154 | 1.7 | 3.5 | 0.00 | 0.05 | 0.00 | 88 | 1008.6 |
| 20260506112558 | 57 | 156 | 0.0 | 4.3 | 0.00 | 0.05 | 0.00 | 88 | 1008.6 |
| 20260506112159 | 57 | 156 | 0.9 | 4.3 | 0.00 | 0.05 | 0.00 | 88 | 1008.6 |
| 20260506111558 | 57 | 182 | 1.7 | 5.2 | 0.00 | 0.05 | 0.00 | 87 | 1008.6 |
| 20260506111100 | 57 | 200 | 2.6 | 8.7 | 0.00 | 0.05 | 0.00 | 87 | 1008.5 |
| 20260506110557 | 57 | 209 | 3.5 | 8.7 | 0.00 | 0.05 | 0.00 | 87 | 1008.6 |
| 20260506110057 | 57 | 244 | 1.7 | 5.2 | 0.00 | 0.05 | 0.00 | 87 | 1008.5 |
| 20260506105557 | 57 | 194 | 1.7 | 4.3 | 0.00 | 0.05 | 0.00 | 87 | 1008.6 |
| 20260506105100 | 57 | 200 | 1.7 | 7.0 | 0.00 | 0.05 | 0.00 | 87 | 1008.6 |
| 20260506104604 | 57 | 188 | 2.6 | 7.0 | 0.00 | 0.05 | 0.00 | 87 | 1008.7 |
| 20260506104058 | 57 | 196 | 2.6 | 6.1 | 0.00 | 0.05 | 0.00 | 87 | 1008.9 |
| 20260506103556 | 57 | 198 | 2.6 | 6.1 | 0.00 | 0.05 | 0.00 | 88 | 1008.5 |
| 20260506103056 | 57 | 215 | 2.6 | 5.2 | 0.00 | 0.05 | 0.00 | 88 | 1008.7 |
| 20260506102557 | 56 | 200 | 2.6 | 4.3 | 0.00 | 0.05 | 0.00 | 90 | 1008.6 |
| 20260506102055 | 56 | 211 | 2.6 | 4.3 | 0.00 | 0.05 | 0.00 | 90 | 1008.6 |
| 20260506101553 | 55 | 206 | 1.7 | 4.3 | 0.00 | 0.05 | 0.00 | 91 | 1008.5 |
| 20260506101053 | 55 | 198 | 2.6 | 4.3 | 0.00 | 0.05 | 0.00 | 93 | 1008.5 |
| 20260506100552 | 55 | 232 | 0.0 | 2.6 | 0.00 | 0.05 | 0.00 | 92 | 1008.4 |
| 20260506100151 | 55 | 232 | 0.0 | 0.0 | 0.00 | 0.05 | 0.00 | 91 | 1008.4 |
| 20260506095552 | 56 | 232 | 0.0 | 0.0 | 0.00 | 0.05 | 0.00 | 90 | 1008.3 |
| 20260506095051 | 56 | 232 | 0.0 | 0.0 | 0.00 | 0.05 | 0.00 | 90 | 1008.3 |
| 20260506094551 | 56 | 232 | 0.0 | 0.0 | 0.00 | 0.05 | 0.00 | 91 | 1008.3 |
| 20260506094050 | 56 | 232 | 0.0 | 0.0 | 0.00 | 0.05 | 0.00 | 91 | 1008.2 |
| 20260506093549 | 56 | 232 | 0.0 | 0.0 | 0.00 | 0.05 | 0.00 | 90 | 1008.3 |
| 20260506093049 | 56 | 232 | 0.0 | 0.0 | 0.00 | 0.05 | 0.00 | 89 | 1008.3 |
| 20260506092548 | 57 | 232 | 0.0 | 0.9 | 0.00 | 0.05 | 0.00 | 88 | 1008.4 |
| 20260506092048 | 57 | 232 | 0.0 | 2.6 | 0.00 | 0.05 | 0.00 | 88 | 1008.2 |
| 20260506091552 | 57 | 232 | 0.0 | 3.5 | 0.00 | 0.05 | 0.00 | 88 | 1008.1 |
| 20260506091048 | 57 | 232 | 1.7 | 3.5 | 0.00 | 0.05 | 0.00 | 89 | 1008.2 |
| 20260506090548 | 57 | 223 | 1.7 | 4.3 | 0.00 | 0.05 | 0.00 | 89 | 1008.4 |
| 20260506090048 | 57 | 215 | 1.7 | 4.3 | 0.00 | 0.05 | 0.00 | 89 | 1008.5 |
| 20260506085547 | 57 | 251 | 0.9 | 4.3 | 0.00 | 0.05 | 0.00 | 89 | 1008.3 |
| 20260506085047 | 57 | 193 | 2.6 | 4.3 | 0.00 | 0.05 | 0.00 | 91 | 1008.3 |
| 20260506084546 | 57 | 225 | 1.7 | 3.5 | 0.00 | 0.05 | 0.00 | 91 | 1008.4 |
| 20260506084046 | 56 | 232 | 1.7 | 4.3 | 0.00 | 0.05 | 0.00 | 91 | 1008.4 |
| 20260506083545 | 56 | 246 | 1.7 | 4.3 | 0.00 | 0.05 | 0.00 | 91 | 1008.4 |
| 20260506083046 | 57 | 255 | 2.6 | 4.3 | 0.00 | 0.05 | 0.00 | 90 | 1008.4 |
| 20260506082545 | 57 | 235 | 1.7 | 6.1 | 0.00 | 0.05 | 0.00 | 90 | 1008.3 |
| 20260506082044 | 57 | 240 | 1.7 | 6.1 | 0.00 | 0.05 | 0.00 | 90 | 1008.4 |
| 20260506081544 | 57 | 230 | 2.6 | 6.1 | 0.00 | 0.05 | 0.00 | 89 | 1008.4 |
| 20260506081042 | 58 | 263 | 1.7 | 4.3 | 0.00 | 0.05 | 0.00 | 89 | 1008.5 |
| 20260506080542 | 57 | 244 | 0.0 | 2.6 | 0.00 | 0.05 | 0.00 | 89 | 1008.4 |
| 20260506073038 | 58 | 219 | 3.5 | 7.8 | 0.00 | 0.05 | 0.00 | 89 | 1008.3 |
| 20260506072538 | 58 | 176 | 3.5 | 6.1 | 0.00 | 0.05 | 0.00 | 90 | 1008.3 |
| 20260506072037 | 58 | 221 | 2.6 | 7.0 | 0.00 | 0.05 | 0.00 | 89 | 1008.2 |
| 20260506071536 | 58 | 220 | 2.6 | 7.0 | 0.00 | 0.05 | 0.00 | 89 | 1008.2 |
| 20260506071036 | 58 | 225 | 3.5 | 7.0 | 0.00 | 0.05 | 0.00 | 90 | 1008.1 |
| 20260506070535 | 58 | 204 | 2.6 | 5.2 | 0.00 | 0.05 | 0.00 | 89 | 1008.1 |
| 20260506062037 | 58 | 202 | 2.6 | 5.2 | 0.00 | 0.05 | 0.00 | 91 | 1008.2 |
| 20260506061533 | 58 | 209 | 2.6 | 7.0 | 0.00 | 0.05 | 0.00 | 91 | 1008.1 |
| 20260506061034 | 59 | 211 | 2.6 | 7.0 | 0.00 | 0.05 | 0.00 | 90 | 1008.1 |
| 20260506060532 | 59 | 206 | 1.7 | 3.5 | 0.00 | 0.05 | 0.00 | 89 | 1007.9 |
| 20260506051030 | 59 | 209 | 1.7 | 5.2 | 0.00 | 0.05 | 0.00 | 91 | 1008.2 |
| 20260506050528 | 59 | 225 | 1.7 | 5.2 | 0.00 | 0.05 | 0.00 | 91 | 1008.3 |
| 20260506045027 | 59 | 204 | 0.0 | 0.0 | 0.00 | 0.05 | 0.00 | 92 | 1008.4 |
| 20260506044533 | 59 | 209 | 0.0 | 0.0 | 0.00 | 0.05 | 0.00 | 92 | 1008.4 |
| 20260506044026 | 58 | 209 | 0.0 | 0.0 | 0.00 | 0.05 | 0.00 | 92 | 1008.3 |
| 20260506043525 | 58 | 209 | 0.0 | 0.0 | 0.00 | 0.05 | 0.00 | 92 | 1008.2 |
| 20260506043125 | 58 | 209 | 0.0 | 0.0 | 0.00 | 0.05 | 0.00 | 92 | 1008.2 |
| 20260506042526 | 59 | 184 | 0.0 | 0.0 | 0.00 | 0.05 | 0.00 | 91 | 1008.1 |
| 20260506042022 | 59 | 184 | 0.0 | 0.0 | 0.00 | 0.05 | 0.00 | 90 | 1008.2 |
| 20260506041522 | 59 | 184 | 0.0 | 1.7 | 0.00 | 0.05 | 0.00 | 90 | 1008.0 |
| 20260506041020 | 60 | 184 | 0.0 | 1.7 | 0.00 | 0.05 | 0.00 | 89 | 1008.1 |
| 20260506040519 | 60 | 184 | 0.0 | 2.6 | 0.00 | 0.05 | 0.00 | 88 | 1008.2 |
| 20260506040018 | 60 | 184 | 0.9 | 3.5 | 0.00 | 0.05 | 0.00 | 88 | 1008.3 |
| 20260506035524 | 60 | 184 | 1.7 | 3.5 | 0.00 | 0.05 | 0.05 | 89 | 1008.3 |
| 20260506035019 | 60 | 201 | 1.7 | 3.5 | 0.00 | 0.05 | 0.05 | 88 | 1008.3 |
| 20260506034519 | 60 | 201 | 0.9 | 3.5 | 0.00 | 0.05 | 0.05 | 87 | 1008.2 |
| 20260506034018 | 60 | 227 | 0.9 | 2.6 | 0.00 | 0.05 | 0.05 | 87 | 1008.2 |
| 20260506033517 | 60 | 227 | 0.9 | 3.5 | 0.00 | 0.05 | 0.05 | 86 | 1008.2 |
| 20260506033023 | 60 | 227 | 0.9 | 4.3 | 0.00 | 0.05 | 0.05 | 88 | 1008.2 |
| 20260506032518 | 59 | 169 | 1.7 | 4.3 | 0.00 | 0.05 | 0.05 | 90 | 1008.3 |
| 20260506032018 | 58 | 205 | 0.9 | 3.5 | 0.00 | 0.05 | 0.05 | 92 | 1008.4 |
| 20260506031528 | 58 | 209 | 0.0 | 0.0 | 0.00 | 0.05 | 0.05 | 92 | 1008.4 |
| 20260506031017 | 58 | 227 | 0.0 | 0.0 | 0.00 | 0.05 | 0.05 | 93 | 1008.2 |
| 20260506030519 | 58 | 186 | 0.0 | 0.0 | 0.00 | 0.05 | 0.05 | 92 | 1008.2 |
| 20260506030040 | 58 | 186 | 0.0 | 0.0 | 0.00 | 0.05 | 0.05 | 91 | 1008.2 |
| 20260506025516 | 59 | 186 | 0.0 | 0.0 | 0.00 | 0.05 | 0.05 | 90 | 1008.1 |
| 20260506025019 | 59 | 186 | 0.0 | 0.0 | 0.00 | 0.05 | 0.05 | 90 | 1008.2 |
| 20260506024525 | 59 | 186 | 0.0 | 0.9 | 0.00 | 0.05 | 0.05 | 90 | 1008.2 |
| 20260506024017 | 58 | 186 | 0.0 | 1.7 | 0.00 | 0.05 | 0.05 | 91 | 1008.2 |
| 20260506023515 | 58 | 186 | 0.9 | 2.6 | 0.00 | 0.05 | 0.05 | 92 | 1008.2 |
| 20260506023015 | 58 | 186 | 0.9 | 2.6 | 0.00 | 0.05 | 0.05 | 92 | 1008.0 |
| 20260506022515 | 59 | 186 | 1.7 | 2.6 | 0.00 | 0.05 | 0.05 | 90 | 1008.0 |
| 20260506022015 | 60 | 186 | 0.0 | 3.5 | 0.00 | 0.05 | 0.05 | 88 | 1008.0 |
| 20260506021515 | 60 | 194 | 1.7 | 5.2 | 0.00 | 0.05 | 0.05 | 89 | 1007.9 |
| 20260506021015 | 59 | 180 | 3.5 | 5.2 | 0.00 | 0.05 | 0.05 | 91 | 1008.0 |
| 20260506020520 | 59 | 196 | 1.7 | 3.5 | 0.00 | 0.05 | 0.05 | 92 | 1008.0 |
| 20260506020015 | 59 | 218 | 0.9 | 2.6 | 0.00 | 0.05 | 0.05 | 91 | 1008.0 |
| 20260506015517 | 60 | 218 | 0.9 | 2.6 | 0.00 | 0.05 | 0.05 | 90 | 1008.1 |
| 20260506015015 | 60 | 218 | 0.0 | 2.6 | 0.00 | 0.05 | 0.05 | 89 | 1008.1 |
| 20260506014514 | 60 | 218 | 0.0 | 1.7 | 0.00 | 0.05 | 0.05 | 88 | 1008.2 |
| 20260506014014 | 60 | 218 | 0.0 | 1.7 | 0.00 | 0.05 | 0.05 | 86 | 1008.3 |
| 20260506013514 | 60 | 218 | 0.0 | 3.5 | 0.00 | 0.05 | 0.05 | 87 | 1008.1 |
| 20260506013015 | 60 | 218 | 1.7 | 3.5 | 0.00 | 0.05 | 0.05 | 89 | 1008.3 |
| 20260506012514 | 59 | 218 | 0.9 | 3.5 | 0.00 | 0.05 | 0.05 | 91 | 1008.3 |
| 20260506012014 | 59 | 218 | 0.9 | 2.6 | 0.00 | 0.05 | 0.05 | 92 | 1008.2 |
| 20260506011517 | 59 | 193 | 1.7 | 2.6 | 0.00 | 0.05 | 0.05 | 90 | 1008.2 |
| 20260506011015 | 59 | 193 | 0.9 | 1.7 | 0.00 | 0.05 | 0.05 | 90 | 1008.1 |
| 20260506010513 | 59 | 193 | 0.9 | 1.7 | 0.00 | 0.05 | 0.05 | 90 | 1008.0 |
| 20260506010013 | 60 | 193 | 0.9 | 1.7 | 0.00 | 0.05 | 0.05 | 89 | 1007.9 |
| 20260506005513 | 60 | 193 | 0.9 | 1.7 | 0.00 | 0.05 | 0.05 | 89 | 1007.9 |
| 20260506005012 | 60 | 193 | 0.0 | 2.6 | 0.00 | 0.05 | 0.05 | 89 | 1007.9 |
| 20260506004524 | 61 | 193 | 0.0 | 2.6 | 0.00 | 0.05 | 0.05 | 84 | 1007.9 |
| 20260506004012 | 61 | 193 | 0.0 | 1.7 | 0.00 | 0.05 | 0.05 | 83 | 1007.8 |
| 20260506003512 | 61 | 193 | 0.0 | 0.9 | 0.00 | 0.05 | 0.05 | 84 | 1007.7 |
| 20260506003012 | 61 | 193 | 0.0 | 1.7 | 0.00 | 0.05 | 0.05 | 83 | 1007.7 |
| 20260506002512 | 61 | 193 | 0.0 | 1.7 | 0.00 | 0.05 | 0.05 | 84 | 1007.5 |
| 20260506002014 | 60 | 193 | 0.0 | 0.9 | 0.00 | 0.05 | 0.05 | 85 | 1007.5 |
| 20260506001512 | 60 | 193 | 0.0 | 0.9 | 0.00 | 0.05 | 0.05 | 86 | 1007.4 |